Hourly Data Report for May 04, 2017

ATIKOKAN (AUT)
ONTARIO

48°45'40.000" N
91°37'41.000" W
389.30 m
6020LPQ
71747
WCH

Download Data

Hourly Data (May 2017)
Hourly Data Report for May 4, 2017
TIME
LST
Temp Definition
°C
Dew Point Definition
°C
Rel Hum Definition
%
Precip. Amount Definition
mm

Wind Dir Definition
10's deg

Wind Spd Definition
km/h
Visibility Definition
km
Stn Press Definition
kPa
Hmdx Definition


Wind Chill Definition


Weather Definition


00:00 3.1 2.3 94 0.0   0   97.03     LegendNANA
01:00 2.4 1.9 97 0.0 0 1   97.03     LegendNANA
02:00 2.1 1.7 97 0.0   0   97.05     LegendNANA
03:00 1.8 1.5 98 0.0   0   97.09     LegendNANA
04:00 1.3 1.0 98 0.0 29 3   97.12     LegendNANA
05:00 1.5 1.2 98 0.2 0 1   97.12     LegendNANA
06:00 2.3 2.0 98 0.0 21 2   97.16     LegendNANA
07:00 3.4 3.1 98 0.0 24 3   97.20     LegendNANA
08:00 4.7 4.4 98 0.0 19 2   97.20     LegendNANA
09:00 7.1 6.5 96 0.0 29 2   97.18     LegendNANA
10:00 8.5 6.5 87 0.0 32 7   97.20     LegendNANA
11:00 10.4 5.4 71 0.0 28 6   97.18     LegendNANA
12:00 13.5 6.0 60 0.0 21 4   97.12     LegendNANA
13:00 11.1 4.7 65 0.0 32 10   97.12     LegendNANA
14:00 11.1 3.8 61 1.4 2 8   97.10     LegendNANA
15:00 12.4 3.6 55 0.0 6 14   97.10     LegendNANA
16:00 13.7 3.9 52 0.0 5 10   97.09     LegendNANA
17:00 13.5 2.9 49 0.0 5 10   97.11     LegendNANA
18:00 12.9 2.0 47 0.0 3 9   97.14     LegendNANA
19:00 8.6 4.8 77 0.6 2 3   97.14     LegendNANA
20:00 7.5 3.8 78 0.0 8 4   97.17     LegendNANA
21:00 4.3 2.9 90 0.0 5 1   97.17     LegendNANA
22:00 3.0 2.1 94 0.0 6 1   97.15     LegendNANA
23:00 2.0 1.4 96 0.0 6 1   97.13     LegendNANA

Notes on Data Quality.

Legend

  • E = Estimated
  • M = Missing
  • NA = Not Available*
  • [empty] = Indicates an unobserved value
Date modified: